shenyang , China , ASIA

  • Monday
    March 27

    Cloudy  Sunny

    54 °F  27 °F

    North  Southwest

    3~4L    

  • Tuesday
    March 28

    Sunny  Sunny

    59 °F  34 °F

    Southwest  Southwest

    3~4L   3~4L 

  • Wednesday
    March 29

    Sunny  Sunny

    61 °F  32 °F

    Southwest  Southwest

    4~5L   3~4L 

  • Thursday
    March 30

    Cloudy  Sunny

    57 °F  27 °F

    North  North

    3~4L   3~4L 

  • Friday
    March 31

    Sunny  Sunny

    57 °F  28 °F

    North  North

    3~4L   3~4L 

  • Saturday
    April 1

    Sunny  Sunny

    57 °F  32 °F

    Southwest  Southwest

    3~4L   3~4L 

  • Sunday
    April 2

    Sunny  Cloudy

    63 °F  41 °F

    Southwest  No wind

    3~4L    

Date   Weather Temperature Humidity Total_rain Visibility Wind
11:00 Cloudy 47°F 47.2% 0mm 12km Northwest  2.8m/s
14:00 Cloudy 53°F 41.9% 0mm 12km Northwest  2.6m/s
17:00 Cloudy 51°F 41.6% 0mm 12km Northwest  1.8m/s
20:00 Cloudy 39°F 45.2% 0mm 12km Northeast  1.0m/s
23:00 Sunny 38°F 64.3% 0mm 4km Southeast  0.5m/s
02:00 Sunny 35°F 75.1% 0mm 4km Southwest  0.8m/s
05:00 Sunny 27°F 77% 0mm 8km Southwest  1.0m/s
08:00 Sunny 40°F 59.9% 0mm 4km Southwest  2.5m/s
11:00 Sunny 56°F 25.4% 0mm 12km Southwest  3.3m/s
14:00 Sunny 59°F 33.6% 0mm 12km Southwest  3.8m/s
17:00 Sunny 59°F 29.2% 0mm 12km Southwest  3.2m/s
20:00 Sunny 46°F 37.4% 0mm 12km Southwest  1.8m/s
23:00 Sunny 38°F 51.5% 0mm 8km Southwest  1.7m/s
02:00 Sunny 35°F 59.4% 0mm 12km Southwest  1.7m/s
05:00 Sunny 34°F 68.7% 0mm 8km Southwest  1.4m/s
08:00 Sunny 41°F 57.6% 0mm 8km Southwest  2.5m/s
11:00 Sunny 54°F 25.7% 0mm 12km Northwest  2.9m/s
14:00 Sunny 60°F 34.3% 0mm 12km Northwest  3.8m/s
17:00 Sunny 59°F 23.3% 0mm 12km Northwest  3.7m/s
20:00 Sunny 54°F 39.3% 0mm 12km Northwest  1.8m/s
23:00 Sunny 39°F 54.5% 0mm 4km Northwest  2.2m/s
02:00 Sunny 38°F 73.3% 0mm 12km Northwest  1.8m/s
05:00 Sunny 32°F 75.8% 0mm 4km Northeast  2.0m/s
08:00 Sunny 44°F 60.4% 0mm 8km Northeast  2.5m/s
11:00 Cloudy 54°F 37.4% 0mm 12km Northwest  2.4m/s
14:00 Cloudy 56°F 45.5% 0mm 12km Northwest  3.4m/s
17:00 Cloudy 57°F 48.9% 0mm 12km Northwest  2.6m/s
20:00 Cloudy 50°F 57.5% 0mm 12km Northeast  2.0m/s
23:00 Sunny 35°F 72.1% 0mm 12km Northeast  1.4m/s
02:00 Sunny 29°F 75.6% 0mm 4km Northeast  1.5m/s
05:00 Sunny 27°F 70.6% 0mm 8km Northeast  1.1m/s
08:00 Sunny 39°F 58.6% 0mm 8km Northwest  1.5m/s
11:00 Sunny 55°F 42.9% 0mm 12km Northwest  2.5m/s
14:00 Sunny 56°F 43.5% 0mm 12km Northwest  3.4m/s
17:00 Sunny 57°F 44% 0mm 12km Northwest  2.3m/s
20:00 Sunny 44°F 51.4% 0mm 12km Northeast  1.3m/s
23:00 Sunny 35°F 55.9% 0mm 8km Southeast  1.0m/s
02:00 Sunny 35°F 63.5% 0mm 12km Southeast  1.0m/s
05:00 Sunny 29°F 57% 0mm 4km Southwest  0.6m/s
08:00 Sunny 43°F 55% 0mm 4km Southwest  1.8m/s
11:00 Sunny 54°F 30.9% 0mm 12km Southwest  2.5m/s
14:00 Sunny 57°F 40.5% 0mm 12km Southwest  3.4m/s
17:00 Sunny 56°F 43.8% 0mm 12km Southwest  3.0m/s
20:00 Sunny 45°F 53.6% 0mm 4km Southeast  1.3m/s
23:00 Sunny 37°F 63.6% 0mm 4km Southwest  1.4m/s
02:00 Sunny 32°F 70.9% 0mm 12km Southeast  1.6m/s
05:00 Sunny 34°F 69% 0mm 8km Southeast  0.9m/s
08:00 Sunny 43°F 57.2% 0mm 8km Southwest  1.9m/s
11:00 Sunny 55°F 32.7% 0mm 8km Northwest  3.9m/s
14:00 Sunny 62°F 37.4% 0mm 12km Southwest  4.7m/s
17:00 Sunny 58°F 42.1% 0mm 4km Northwest  3.1m/s
20:00 Sunny 52°F 46.4% 0mm 4km Northwest  2.1m/s
23:00 Sunny 45°F 49.7% 0mm 8km Northwest  1.7m/s
02:00 Cloudy 43°F 54.2% 0mm 8km Southwest  1.6m/s
05:00 Cloudy 42°F 59.9% 0mm 8km Southwest  1.6m/s